Вернуться в каталог

COSMOS 970 DEB

АктивенLEO
NORAD 64973·DEBRIS·🇷🇺 Russia

Запущен Dec 21, 1977 с Baikonur Cosmodrome

Loading…

Ближайшие Пролёты (ближайшие 24 часа)

TLE

СвежийSource: Space-Track

Эпоха: Sep 13, 2026, 03:14 UTC

1 64973U 77121CJ  26256.13533717  .00000338  00000-0  39536-3 0  9991
2 64973  66.8541 165.3585 0225902 320.4055  38.0698 13.69306851594333

Отслеживайте COSMOS 970 DEB в реальном времени с AllMySat

Download on the App Store